Location: Baix
(44.7118°N, 4.7648°E)
Time: 03:23:52
(UTC+00:00)

SL-4 R/B - Pass Details

Date: 07 August 2020
Orbit: 428 x 665 km, 51.6° (Epoch: 27 September)

Event Time Altitude Azimuth Distance (km) Brightness Sun altitude
Exits shadow 01:57:00 20° 315° (NW) 1,064 3.6 -22.2°
Maximum altitude 01:59:04 47° 22° (NNE) 577 2.5 -21.9°
Drops below altitude 10° 02:02:22 10° 99° (E) 1,522 4.6 -21.6°
Sets 02:04:31 0° 105° (ESE) 2,390 5.6 -21.4°
